Ogallala, NE

10:58 AM MDT on April 30, 2017 (GMT -0600)
Searle

Weather History for KOGA - April, 2013

Change the Weather History Date:

Sunday, April 21, 2013

  Actual Average Record
Temperature  
Mean Temperature 48 °F -  
Max Temperature 64 °F 61 °F 88 °F (1960)
Min Temperature 32 °F 36 °F 21 °F (1982)
Degree Days  
Heating Degree Days 18    
Moisture  
Dew Point 36 °F    
Average Humidity 61    
Maximum Humidity 94    
Minimum Humidity 31    
Precipitation  
Precipitation 0.00 in - - ()
Sea Level Pressure  
Sea Level Pressure 30.01 in    
Wind  
Wind Speed 7 mph (NNE)    
Max Wind Speed 22 mph    
Max Gust Speed 25 mph    
Visibility 10 miles    
Events      
Averages and records for this station are not official NWS values.
T = Trace of Precipitation, MM = Missing Value Source: NWS Daily Summary

Daily Weather History Graph

Daily Weather History Graph

Search for Another Location

Airport or City:

Trip Planner

Search our weather history database for the weather conditions in past years. The results will help you decide how hot, cold, wet, or windy it might be!

Date:

Astronomy

Apr. 21, 2013 Rise Set
Actual Time 5:58 AM MDT 7:33 PM MDT
Civil Twilight 5:29 AM MDT 8:02 PM MDT
Nautical Twilight 4:54 AM MDT 8:38 PM MDT
Astronomical Twilight 4:16 AM MDT 9:15 PM MDT
Moon 3:19 PM MDT (4/21) 3:23 AM MDT (4/21)
Length of Visible Light 14h 33m
Length of Day
13h 35m
Waxing Gibbous, 80% of the Moon is Illuminated
Apr 21
Waxing Gibbous
Apr 25
Full
May 2
Last Quarter
May 9
New
May 17
First Quarter

Hourly Weather History & Observations

Time (MDT) Temp. Windchill Dew Point Humidity Pressure Visibility Wind Dir Wind Speed Gust Speed Precip Events Conditions
12:15 AM 41.4 °F 38.4 °F 33.8 °F 74% 29.99 in 10.0 mi South 4.6 mph - N/A   Scattered Clouds
12:35 AM 41.2 °F - 33.8 °F 75% 29.99 in 10.0 mi Calm Calm - N/A   Overcast
3:15 AM 41.4 °F 39.4 °F 36.1 °F 82% 29.98 in 10.0 mi East 3.5 mph - N/A   Overcast
3:35 AM 41.0 °F 39.0 °F 36.1 °F 83% 29.97 in 10.0 mi ESE 3.5 mph - N/A   Mostly Cloudy
3:55 AM 40.3 °F - 35.6 °F 83% 29.97 in 10.0 mi Calm Calm - N/A   Scattered Clouds
4:15 AM 40.1 °F 38.0 °F 35.8 °F 85% 29.97 in 10.0 mi ESE 3.5 mph - N/A   Scattered Clouds
4:35 AM 39.6 °F - 35.8 °F 86% 29.96 in 10.0 mi Calm Calm - N/A   Scattered Clouds
4:55 AM 37.6 °F - 34.2 °F 87% 29.97 in 10.0 mi Calm Calm - N/A   Scattered Clouds
5:15 AM 36.7 °F - 33.3 °F 87% 29.97 in 10.0 mi Calm Calm - N/A   Clear
5:35 AM 33.1 °F - 31.1 °F 92% 29.97 in 10.0 mi Calm Calm - N/A   Clear
5:55 AM 32.9 °F 29.8 °F 31.3 °F 94% 29.98 in 10.0 mi West 3.5 mph - N/A   Clear
6:15 AM 32.0 °F 28.7 °F 30.2 °F 93% 29.98 in 10.0 mi SW 3.5 mph - N/A   Clear
6:35 AM 34.2 °F 30.0 °F 32.5 °F 94% 29.98 in 10.0 mi WSW 4.6 mph - N/A   Clear
6:55 AM 37.2 °F 31.2 °F 34.5 °F 90% 29.98 in 10.0 mi WSW 8.1 mph - N/A   Clear
7:15 AM 39.2 °F 33.6 °F 36.3 °F 89% 29.99 in 10.0 mi WSW 8.1 mph - N/A   Clear
7:35 AM 43.9 °F 38.3 °F 38.8 °F 82% 30.00 in 10.0 mi WSW 10.4 mph - N/A   Clear
7:55 AM 47.7 °F - 39.4 °F 73% 30.00 in 10.0 mi West 10.4 mph 16.1 mph N/A   Clear
8:15 AM 50.0 °F - 38.7 °F 65% 30.00 in 10.0 mi West 9.2 mph - N/A   Clear
8:35 AM 52.0 °F - 38.7 °F 60% 30.00 in 10.0 mi WNW 12.7 mph - N/A   Clear
8:55 AM 54.5 °F - 38.3 °F 54% 30.00 in 10.0 mi WNW 13.8 mph - N/A   Clear
9:15 AM 56.3 °F - 38.3 °F 51% 30.01 in 10.0 mi WNW 15.0 mph - N/A   Clear
9:35 AM 57.6 °F - 37.4 °F 47% 30.01 in 10.0 mi NW 15.0 mph 20.7 mph N/A   Clear
9:55 AM 58.5 °F - 37.4 °F 45% 30.01 in 10.0 mi NNW 18.4 mph - N/A   Clear
10:15 AM 59.0 °F - 37.9 °F 46% 30.02 in 10.0 mi NNW 17.3 mph 23.0 mph N/A   Clear
10:35 AM 60.1 °F - 37.8 °F 44% 30.02 in 10.0 mi North 15.0 mph 23.0 mph N/A   Clear
10:55 AM 60.3 °F - 35.6 °F 40% 30.02 in 10.0 mi North 11.5 mph 19.6 mph N/A   Clear
11:15 AM 60.8 °F - 34.9 °F 38% 30.02 in 10.0 mi North 13.8 mph 19.6 mph N/A   Clear
11:35 AM 61.9 °F - 34.7 °F 36% 30.02 in 10.0 mi North 13.8 mph 18.4 mph N/A   Clear
11:55 AM 62.2 °F - 34.2 °F 35% 30.02 in 10.0 mi NNE 10.4 mph 18.4 mph N/A   Scattered Clouds
12:15 PM 62.6 °F - 33.6 °F 34% 30.01 in 10.0 mi North 9.2 mph - N/A   Scattered Clouds
12:35 PM 62.6 °F - 33.1 °F 33% 30.01 in 10.0 mi North 8.1 mph - N/A   Scattered Clouds
12:55 PM 61.9 °F - 33.3 °F 34% 30.01 in 10.0 mi NW 10.4 mph 17.3 mph N/A   Scattered Clouds
1:15 PM 62.1 °F - 32.2 °F 33% 30.00 in 10.0 mi NNW 4.6 mph - N/A   Mostly Cloudy
1:35 PM 61.9 °F - 32.2 °F 33% 30.00 in 10.0 mi North 12.7 mph 17.3 mph N/A   Mostly Cloudy
1:55 PM 63.7 °F - 32.7 °F 31% 30.00 in 10.0 mi North 5.8 mph 9.2 mph N/A   Mostly Cloudy
2:15 PM 62.6 °F - 32.4 °F 32% 30.00 in 10.0 mi North 8.1 mph - N/A   Scattered Clouds
2:35 PM 62.8 °F - 31.3 °F 31% 30.00 in 10.0 mi NNW 6.9 mph 16.1 mph N/A   Scattered Clouds
2:55 PM 63.5 °F - 31.8 °F 31% 29.99 in 10.0 mi North 8.1 mph - N/A   Clear
3:15 PM 63.7 °F - 32.0 °F 31% 29.99 in 10.0 mi NNE 3.5 mph - N/A   Clear
3:35 PM 62.6 °F - 32.0 °F 32% 29.99 in 10.0 mi Calm Calm - N/A   Clear
3:55 PM 62.8 °F - 31.8 °F 31% 29.99 in 10.0 mi WNW 5.8 mph - N/A   Scattered Clouds
4:15 PM 58.1 °F - 38.1 °F 47% 30.00 in 10.0 mi North 20.7 mph - N/A   Overcast
4:35 PM 57.6 °F - 39.4 °F 51% 30.00 in 10.0 mi NNE 21.9 mph 25.3 mph N/A   Mostly Cloudy
4:55 PM 58.5 °F - 37.8 °F 46% 30.00 in 10.0 mi NNE 20.7 mph - N/A   Scattered Clouds
5:15 PM 57.2 °F - 38.8 °F 50% 30.00 in 10.0 mi NE 18.4 mph 25.3 mph N/A   Clear
5:35 PM 58.1 °F - 38.3 °F 48% 30.00 in 10.0 mi NE 16.1 mph - N/A   Clear
5:55 PM 57.2 °F - 37.4 °F 48% 30.01 in 10.0 mi NE 13.8 mph - N/A   Clear
6:15 PM 56.5 °F - 37.2 °F 49% 30.01 in 10.0 mi NE 10.4 mph - N/A   Clear
6:35 PM 55.8 °F - 37.6 °F 51% 30.02 in 10.0 mi NE 11.5 mph 17.3 mph N/A   Clear
6:55 PM 54.7 °F - 37.9 °F 53% 30.03 in 10.0 mi ENE 13.8 mph - N/A   Clear
7:15 PM 53.2 °F - 38.8 °F 58% 30.04 in 10.0 mi NE 12.7 mph 17.3 mph N/A   Mostly Cloudy
7:35 PM 52.2 °F - 39.2 °F 61% 30.02 in 10.0 mi NE 13.8 mph 21.9 mph N/A   Scattered Clouds
7:55 PM 50.9 °F - 40.1 °F 67% 30.02 in 10.0 mi ENE 12.7 mph - N/A   Clear
8:15 PM 50.2 °F - 40.1 °F 68% 30.03 in 10.0 mi East 10.4 mph - N/A   Clear
8:35 PM 49.5 °F - 40.5 °F 71% 30.04 in 10.0 mi East 11.5 mph - N/A   Clear
8:55 PM 48.6 °F - 40.5 °F 74% 30.05 in 10.0 mi East 11.5 mph 17.3 mph N/A   Clear
9:15 PM 47.7 °F - 41.0 °F 78% 30.05 in 10.0 mi East 12.7 mph - N/A   Clear
9:35 PM 47.3 °F - 41.0 °F 79% 30.05 in 10.0 mi East 12.7 mph - N/A   Mostly Cloudy
9:55 PM 46.2 °F 41.7 °F 41.0 °F 82% 30.05 in 10.0 mi East 9.2 mph - N/A   Scattered Clouds
10:15 PM 45.5 °F 40.8 °F 40.5 °F 83% 30.05 in 10.0 mi East 9.2 mph - N/A   Scattered Clouds
10:35 PM 45.1 °F 40.8 °F 40.3 °F 83% 30.06 in 10.0 mi East 8.1 mph - N/A   Scattered Clouds
10:55 PM 44.6 °F 41.4 °F 40.1 °F 84% 30.06 in 10.0 mi SE 5.8 mph - N/A   Scattered Clouds
11:15 PM 44.2 °F 38.8 °F 40.1 °F 85% 30.06 in 10.0 mi SE 10.4 mph - N/A   Mostly Cloudy
11:35 PM 44.2 °F 39.7 °F 40.5 °F 87% 30.05 in 10.0 mi SE 8.1 mph - N/A   Mostly Cloudy
11:55 PM 44.8 °F 39.0 °F 41.0 °F 87% 30.05 in 10.0 mi SE 11.5 mph - N/A   Overcast